Regional Weather Roundup
Issued by NWS

Home | Current Version | Previous Version | Text Only | Print | Product List | Glossary Off
Versions: 1 2 3 4 5 6 7 8 9 10 11 12 13 14 15 16 17 18 19 20 21 22 23 24 25 26 27 28 29 30 31 32 33 34 35 36 37 38 39 40 41 42 43 44 45 46 47 48 49 50

000
ASUS43 KDMX 290307
RWRIA

WEATHER ROUNDUP FOR IOWA
NATIONAL WEATHER SERVICE DES MOINES IA
1000 PM CDT SUN JUN 28 2015

NOTE: "FAIR" INDICATES FEW OR NO CLOUDS BELOW 12,000 FEET WITH NO
SIGNIFICANT WEATHER AND/OR OBSTRUCTIONS TO VISIBILITY.

* - THESE STATIONS ARE NOT NWS STATIONS...THUS NOT UNDER NWS
QUALITY CONTROL.  THEY ALSO DO NOT REPORT WEATHER SUCH
AS PRECIPITATION OR FOG.

IAZ001>003-012>014-020>022-031>034-043>046-290400-
   NORTHWEST IOWA

CITY           SKY/WX    TMP DP  RH WIND       PRES   REMARKS
CARROLL *      CLEAR     70  64  83 NW9       29.86R
CHEROKEE *     CLEAR     70  59  68 CALM      29.88R
DENISON *      CLEAR     70  61  73 N5        29.86R
LE MARS *        N/A     70  61  73 N5        29.91R
ORANGE CITY *  CLEAR     70  57  64 N3        29.91R
SHELDON *      CLEAR     66  61  82 NW3       29.89R
SIOUX CITY     CLEAR     73  57  57 N6        29.89R
SPENCER        CLEAR     66  60  81 NW7       29.88R
STORM LAKE *   CLEAR     68  61  77 NW7       29.89R
$$

IAZ055>058-069>071-079>083-090>094-290400-
   SOUTHWEST IOWA

CITY           SKY/WX    TMP DP  RH WIND       PRES   REMARKS
ATLANTIC *     CLEAR     72  61  68 N3        29.87R
AUDUBON *      CLEAR     72  63  73 NW3       29.88R
CLARINDA *     CLEAR     73  64  73 CALM      29.87R
COUNCIL BLFS * CLEAR     73  59  60 NW6       29.88R
CRESTON *      CLEAR     70  63  78 NW8       29.86R
HARLAN  *      CLEAR     70  66  88 CALM      29.90R
LAMONI         CLEAR     73  62  68 N9        29.83R
RED OAK *      CLEAR     72  63  73 NW7       29.87R
SHENANDOAH *   CLEAR     73  63  68 N5        29.87R
$$

IAZ047>049-059>061-072>074-084-290400-
   CENTRAL IOWA

CITY           SKY/WX    TMP DP  RH WIND       PRES   REMARKS
AMES           CLEAR     72  64  76 N9        29.81R
ANKENY *       CLEAR     73  68  83 VRB6      29.82R
CHARITON *     CLEAR     72  66  83 NW8       29.81R
DES MOINES     PTCLDY    76  64  66 N7        29.82R
GRINNELL*      PTCLDY    68  66  94 NE5       29.82R
KNOXVILLE *    CLEAR     70  66  88 N5        29.80R
MARSHALLTOWN   HVY RAIN  69  67  93 N7        29.83R FOG
PELLA *        CLEAR     66  66 100 CALM      29.82R
PERRY *          N/A     70  66  88 NW5       29.84R
$$

IAZ004>006-015-016-023>025-035-036-290400-
   NORTH CENTRAL IOWA

CITY           SKY/WX    TMP DP  RH WIND       PRES   REMARKS
ALGONA *       CLEAR     70  64  83 N6        29.86R
CLARION *      PTCLDY    66  61  82 CALM      29.85R
ESTHERVILLE    CLEAR     67  61  81 NW7       29.86S
FORT DODGE *   PTCLDY    70  63  78 N5        29.85R
MASON CITY     PTCLDY    63  62  97 CALM      29.86R
FOREST CITY *  PTCLDY    63  63 100 W3        29.85R
IOWA FALLS *     N/A     70  64  83 N6        29.85R
$$

IAZ007>011-017>019-026>030-037>042-050>054-066-290400-
   NORTHEAST IOWA

CITY           SKY/WX    TMP DP  RH WIND       PRES   REMARKS
CEDAR RAPIDS   MOCLDY    65  64  97 E5        29.80S
CHARLES CITY * CLEAR     64  64 100 W6        29.84R
CLINTON *      PTCLDY    63  61  94 E6        29.83S
DECORAH *        N/A    N/A N/A N/A MISG        N/A
DUBUQUE        PTCLDY    62  61  96 CALM      29.83R
MONTICELLO *   PTCLDY    63  63 100 NE3       29.82R
OELWEIN *        N/A     64  63  94 E5        29.83R
WATERLOO       CLOUDY    67  65  93 E3        29.81S
$$

IAZ064-065-067-068-078-290400-
   EAST CENTRAL IOWA

CITY           SKY/WX    TMP DP  RH WIND       PRES   REMARKS
DAVENPORT      CLOUDY    65  63  93 E6        29.81R
IOWA CITY      MOCLDY    65  62  90 NE3       29.81S
MT. PLEASANT * PTCLDY    70  64  83 NE5       29.79R
MUSCATINE *    CLOUDY    66  64  94 E3        29.80R
QUAD CITIES    CLOUDY    66  63  90 E6        29.80R
$$

IAZ062-063-075>077-085>089-095>099-290400-
   SOUTHEAST IOWA

CITY           SKY/WX    TMP DP  RH WIND       PRES   REMARKS
BURLINGTON     PTCLDY    67  65  93 E5        29.79R
FAIRFIELD *    PTCLDY    68  66  94 NE10      29.80R
FORT MADISON * MOCLDY    70  66  88 NE3       29.80R
KEOKUK *       MOCLDY    68  68 100 CALM      29.77R
OSKALOOSA *      N/A     66  64  94 CALM      29.81R
OTTUMWA        PTCLDY    68  66  93 N3        29.78S
WASHINGTON *   MOCLDY    66  66 100 NE6       29.81R FOG
$$

ABBREVIATIONS USED IN REMARKS
   TC - TEMPERATURES IN CELSIUS
  WCI - WIND CHILL INDEX
   HX - HEAT INDEX
  VSB - VISIBILITY
$$



USA.gov is the U.S. government's official web portal to all federal, state and local government web resources and services.